| time (UTC) | temp C | wind direction | speed KPH | gust KPH | rain 1hr cm | rain 24hr cm | rain mn cm | humidity % | barometer mb |
| 20260506024253 | 7 | 240 | 0.0 | 0.0 | 0.00 | 0.00 | 0.00 | 99 | 1006.7 |
| 20260506023059 | 7 | 54 | 0.0 | 1.6 | 0.00 | 0.00 | 0.00 | 99 | 1006.7 |
| 20260506021931 | 8 | 222 | 0.0 | 0.0 | 0.00 | 0.00 | 0.00 | 99 | 1006.6 |
| 20260506020803 | 8 | 252 | 0.0 | 0.0 | 0.00 | 0.00 | 0.00 | 99 | 1006.8 |
| 20260506015635 | 8 | 234 | 0.0 | 0.0 | 0.00 | 0.00 | 0.00 | 99 | 1006.9 |
| 20260506014508 | 8 | 276 | 0.0 | 0.0 | 0.00 | 0.00 | 0.00 | 99 | 1007.1 |
| 20260506013342 | 8 | 216 | 0.0 | 0.0 | 0.00 | 0.00 | 0.00 | 99 | 1007.2 |
| 20260506012227 | 8 | 156 | 0.0 | 0.0 | 0.00 | 0.00 | 0.00 | 99 | 1007.2 |
| 20260506011046 | 8 | 198 | 0.0 | 0.0 | 0.00 | 0.00 | 0.00 | 99 | 1007.3 |
| 20260506005918 | 8 | 216 | 0.0 | 0.0 | 0.00 | 0.00 | 0.00 | 99 | 1007.4 |
| 20260506004750 | 8 | 210 | 0.0 | 0.0 | 0.00 | 0.00 | 0.00 | 99 | 1007.6 |
| 20260506003622 | 8 | 216 | 0.0 | 0.0 | 0.00 | 0.00 | 0.00 | 99 | 1007.7 |
| 20260506002454 | 8 | 222 | 0.0 | 0.0 | 0.00 | 0.00 | 0.00 | 99 | 1007.6 |
| 20260506001326 | 8 | 174 | 0.0 | 0.0 | 0.00 | 0.00 | 0.00 | 99 | 1007.8 |
| 20260506000212 | 8 | 192 | 0.0 | 0.0 | 0.00 | 0.00 | 0.00 | 99 | 1007.6 |
| 20260505235030 | 8 | 192 | 0.0 | 0.0 | 0.00 | 0.00 | 0.00 | 99 | 1007.7 |
| 20260505233903 | 8 | 252 | 0.0 | 0.0 | 0.00 | 0.00 | 0.00 | 98 | 1007.9 |
| 20260505232735 | 8 | 198 | 0.0 | 0.0 | 0.00 | 0.00 | 0.00 | 99 | 1008.1 |
| 20260505231603 | 8 | 234 | 0.0 | 1.6 | 0.00 | 0.00 | 0.00 | 99 | 1008.1 |
| 20260505223939 | 8 | 354 | 0.0 | 1.6 | 0.00 | 0.00 | 0.08 | 99 | 1008.3 |
| 20260505222812 | 8 | 210 | 1.6 | 1.6 | 0.00 | 0.00 | 0.08 | 98 | 1008.3 |
| 20260505221556 | 8 | 240 | 0.0 | 0.0 | 0.00 | 0.00 | 0.08 | 98 | 1008.4 |
| 20260505220415 | 9 | 210 | 0.0 | 0.0 | 0.00 | 0.00 | 0.08 | 98 | 1008.3 |
| 20260505215246 | 9 | 234 | 0.0 | 0.0 | 0.00 | 0.00 | 0.08 | 98 | 1008.4 |
| 20260505214119 | 9 | 168 | 0.0 | 1.6 | 0.00 | 0.00 | 0.08 | 97 | 1008.5 |
| 20260505212951 | 9 | 150 | 0.0 | 0.0 | 0.00 | 0.00 | 0.08 | 98 | 1008.4 |
| 20260505211735 | 9 | 6 | 0.0 | 0.0 | 0.00 | 0.00 | 0.08 | 98 | 1008.6 |
| 20260505210554 | 9 | 270 | 0.0 | 0.0 | 0.00 | 0.00 | 0.08 | 96 | 1008.6 |
| 20260505205428 | 10 | 198 | 0.0 | 0.0 | 0.00 | 0.00 | 0.08 | 96 | 1008.6 |
| 20260505204301 | 10 | 354 | 0.0 | 0.0 | 0.00 | 0.00 | 0.08 | 96 | 1008.6 |
| 20260505203133 | 10 | 180 | 0.0 | 0.0 | 0.00 | 0.00 | 0.08 | 97 | 1008.6 |
| 20260505202005 | 10 | 246 | 0.0 | 0.0 | 0.00 | 0.00 | 0.08 | 97 | 1008.5 |
| 20260505200838 | 10 | 18 | 0.0 | 0.0 | 0.00 | 0.00 | 0.08 | 97 | 1008.3 |
| 20260505195723 | 10 | 216 | 0.0 | 0.0 | 0.00 | 0.00 | 0.08 | 97 | 1008.2 |
| 20260505194541 | 10 | 258 | 0.0 | 0.0 | 0.00 | 0.00 | 0.08 | 96 | 1008.0 |
| 20260505193414 | 11 | 204 | 0.0 | 0.0 | 0.00 | 0.00 | 0.08 | 95 | 1007.9 |
| 20260505192245 | 11 | 252 | 0.0 | 0.0 | 0.00 | 0.00 | 0.08 | 94 | 1007.8 |
| 20260505191118 | 11 | 204 | 0.0 | 0.0 | 0.00 | 0.00 | 0.08 | 93 | 1007.7 |
| 20260505185950 | 12 | 258 | 0.0 | 0.0 | 0.00 | 0.00 | 0.08 | 92 | 1007.5 |
| 20260505184823 | 12 | 258 | 0.0 | 0.0 | 0.00 | 0.00 | 0.08 | 91 | 1007.2 |
| 20260505183709 | 13 | 228 | 0.0 | 0.0 | 0.00 | 0.00 | 0.08 | 90 | 1007.4 |
| 20260505182528 | 13 | 240 | 0.0 | 0.0 | 0.00 | 0.00 | 0.08 | 88 | 1007.2 |
| 20260505181400 | 13 | 12 | 0.0 | 0.0 | 0.00 | 0.00 | 0.08 | 87 | 1007.0 |
| 20260505180232 | 13 | 300 | 0.0 | 0.0 | 0.00 | 0.00 | 0.08 | 87 | 1007.2 |
| 20260505175106 | 13 | 18 | 0.0 | 0.0 | 0.00 | 0.00 | 0.08 | 88 | 1007.2 |
| 20260505173850 | 14 | 0 | 0.0 | 0.0 | 0.00 | 0.00 | 0.08 | 87 | 1007.0 |
| 20260505172708 | 14 | 306 | 0.0 | 0.0 | 0.00 | 0.00 | 0.08 | 85 | 1006.8 |
| 20260505171540 | 14 | 282 | 0.0 | 0.0 | 0.00 | 0.00 | 0.08 | 82 | 1006.8 |
| 20260505170413 | 15 | 174 | 1.6 | 1.6 | 0.00 | 0.00 | 0.08 | 84 | 1006.7 |
| 20260505165246 | 15 | 204 | 0.0 | 1.6 | 0.00 | 0.00 | 0.08 | 79 | 1006.7 |
| 20260505164029 | 16 | 192 | 0.0 | 1.6 | 0.00 | 0.00 | 0.08 | 77 | 1006.8 |
| 20260505162847 | 15 | 222 | 0.0 | 4.8 | 0.03 | 0.00 | 0.08 | 77 | 1007.0 |
| 20260505161719 | 15 | 168 | 4.8 | 6.4 | 0.03 | 0.00 | 0.08 | 82 | 1007.2 |
| 20260505160552 | 14 | 186 | 4.8 | 4.8 | 0.03 | 0.00 | 0.08 | 82 | 1007.1 |
| 20260505153131 | 14 | 162 | 3.2 | 6.4 | 0.05 | 0.00 | 0.08 | 78 | 1007.0 |
| 20260505152016 | 15 | 204 | 6.4 | 8.0 | 0.03 | 0.00 | 0.05 | 74 | 1006.9 |
| 20260505150835 | 15 | 306 | 4.8 | 6.4 | 0.03 | 0.00 | 0.05 | 75 | 1006.7 |
| 20260505130140 | 17 | 348 | 1.6 | 3.2 | 0.00 | 0.00 | 0.03 | 63 | 1007.0 |
| 20260505124957 | 18 | 60 | 3.2 | 3.2 | 0.00 | 0.00 | 0.03 | 65 | 1006.6 |
| 20260505123829 | 17 | 6 | 0.0 | 3.2 | 0.00 | 0.00 | 0.03 | 69 | 1006.8 |
| 20260505122700 | 17 | 210 | 3.2 | 6.4 | 0.00 | 0.00 | 0.03 | 69 | 1007.2 |
| 20260505121534 | 17 | 282 | 0.0 | 4.8 | 0.00 | 0.00 | 0.03 | 75 | 1007.2 |
| 20260505120318 | 17 | 12 | 0.0 | 3.2 | 0.00 | 0.00 | 0.03 | 72 | 1007.1 |
| 20260505115137 | 16 | 171 | 3.2 | 3.2 | 0.00 | 0.00 | 0.03 | 74 | 1007.1 |
| 20260505114008 | 15 | 198 | 0.0 | 0.0 | 0.00 | 0.00 | 0.03 | 74 | 1007.3 |
| 20260505112841 | 16 | 246 | 0.0 | 1.6 | 0.00 | 0.00 | 0.03 | 80 | 1007.2 |
| 20260505111713 | 15 | 12 | 0.0 | 0.0 | 0.00 | 0.00 | 0.03 | 80 | 1007.6 |
| 20260505110545 | 15 | 216 | 0.0 | 3.2 | 0.00 | 0.00 | 0.03 | 83 | 1007.6 |
| 20260505101958 | 15 | 72 | 1.6 | 3.2 | 0.00 | 0.00 | 0.03 | 78 | 1007.6 |
| 20260505100832 | 14 | 228 | 0.0 | 1.6 | 0.00 | 0.00 | 0.03 | 80 | 1007.6 |
| 20260505095705 | 14 | 240 | 0.0 | 1.6 | 0.00 | 0.00 | 0.03 | 77 | 1007.6 |
| 20260505094449 | 14 | 150 | 0.0 | 0.0 | 0.00 | 0.00 | 0.03 | 77 | 1007.5 |
| 20260505093254 | 14 | 228 | 0.0 | 1.6 | 0.00 | 0.00 | 0.03 | 79 | 1007.5 |
| 20260505092115 | 15 | 222 | 0.0 | 0.0 | 0.00 | 0.00 | 0.03 | 79 | 1007.6 |
| 20260505090910 | 13 | 229 | 0.0 | 0.0 | 0.00 | 0.00 | 0.03 | 81 | 1007.8 |
| 20260505085742 | 14 | 228 | 0.0 | 0.0 | 0.03 | 0.00 | 0.03 | 81 | 1007.8 |
| 20260505084526 | 13 | 0 | 0.0 | 3.2 | 0.03 | 0.00 | 0.03 | 85 | 1007.8 |
| 20260505083345 | 13 | 54 | 0.0 | 0.0 | 0.03 | 0.00 | 0.03 | 86 | 1007.8 |
| 20260505082205 | 12 | 348 | 0.0 | 0.0 | 0.03 | 0.00 | 0.03 | 87 | 1008.1 |
| 20260505081039 | 12 | 210 | 0.0 | 1.6 | 0.03 | 0.00 | 0.03 | 88 | 1008.2 |
| 20260505075911 | 12 | 222 | 0.0 | 1.6 | 0.03 | 0.00 | 0.03 | 87 | 1008.4 |
| 20260505074731 | 12 | 210 | 0.0 | 3.2 | 0.00 | 0.00 | 0.00 | 88 | 1008.5 |
| 20260505073605 | 12 | 186 | 0.0 | 1.6 | 0.00 | 0.00 | 0.00 | 87 | 1008.6 |
| 20260505072438 | 12 | 216 | 0.0 | 0.0 | 0.00 | 0.00 | 0.00 | 86 | 1008.6 |
| 20260505071257 | 12 | 246 | 0.0 | 0.0 | 0.00 | 0.00 | 0.00 | 85 | 1008.6 |
| 20260505070129 | 12 | 240 | 0.0 | 0.0 | 0.00 | 0.00 | 0.00 | 86 | 1008.7 |
| 20260505065003 | 12 | 229 | 0.0 | 0.0 | 0.00 | 0.00 | 0.00 | 89 | 1008.7 |
| 20260505063834 | 12 | 216 | 0.0 | 1.6 | 0.00 | 0.00 | 0.00 | 88 | 1008.8 |
| 20260505062706 | 12 | 264 | 0.0 | 1.6 | 0.00 | 0.00 | 0.00 | 89 | 1008.9 |
| 20260505061538 | 11 | 18 | 0.0 | 0.0 | 0.00 | 0.00 | 0.00 | 90 | 1008.9 |
| 20260505055014 | 11 | 216 | 0.0 | 0.0 | 0.00 | 0.00 | 0.00 | 92 | 1008.9 |
| 20260505053845 | 11 | 228 | 0.0 | 0.0 | 0.00 | 0.00 | 0.00 | 91 | 1008.9 |
| 20260505052718 | 10 | 222 | 0.0 | 0.0 | 0.00 | 0.00 | 0.00 | 95 | 1008.9 |
| 20260505051550 | 10 | 264 | 0.0 | 0.0 | 0.00 | 0.00 | 0.00 | 95 | 1008.9 |
| 20260505050334 | 10 | 318 | 0.0 | 0.0 | 0.00 | 0.00 | 0.00 | 95 | 1008.9 |
| 20260505041731 | 9 | 12 | 0.0 | 0.0 | 0.00 | 0.00 | 0.00 | 97 | 1009.0 |
| 20260505040550 | 9 | 12 | 0.0 | 0.0 | 0.00 | 0.00 | 0.00 | 96 | 1008.9 |
| 20260505035410 | 9 | 228 | 0.0 | 0.0 | 0.00 | 0.00 | 0.00 | 97 | 1008.9 |
| 20260505034247 | 9 | 18 | 0.0 | 0.0 | 0.00 | 0.00 | 0.00 | 98 | 1009.0 |
| 20260505033103 | 9 | 204 | 0.0 | 0.0 | 0.00 | 0.00 | 0.00 | 97 | 1009.1 |
| 20260505031923 | 9 | 210 | 0.0 | 0.0 | 0.00 | 0.00 | 0.00 | 97 | 1009.1 |
| 20260505030755 | 9 | 186 | 0.0 | 0.0 | 0.00 | 0.00 | 0.00 | 98 | 1009.2 |
| 20260505025601 | 9 | 30 | 0.0 | 0.0 | 0.00 | 0.00 | 0.00 | 98 | 1009.3 |